Kabul, Afghanistan

10:33 AM +0430 on April 24, 2017 (GMT +0430)
Kabul

Weather History for OAKB - November, 2012

Change the Weather History Date:

Thursday, November 15, 2012

  Actual Average Record
Temperature  
Mean Temperature 50 °F -  
Max Temperature 64 °F 53 °F - ()
Min Temperature 37 °F 27 °F - ()
Degree Days  
Heating Degree Days 14    
Moisture  
Dew Point 11 °F    
Average Humidity 25    
Maximum Humidity 52    
Minimum Humidity 10    
Precipitation  
Precipitation 0.00 in 0.03 in - ()
Sea Level Pressure  
Sea Level Pressure 30.20 in    
Wind  
Wind Speed 4 mph ()    
Max Wind Speed 7 mph    
Max Gust Speed -    
Visibility 3.6 miles    
Events      
T = Trace of Precipitation, MM = Missing Value Source: Averaged Metar Reports

Daily Weather History Graph

Daily Weather History Graph

Search for Another Location

Airport or City:

Trip Planner

Search our weather history database for the weather conditions in past years. The results will help you decide how hot, cold, wet, or windy it might be!

Date:

Astronomy

Nov. 15, 2012 Rise Set
Actual Time 6:26 AM +0430 4:48 PM +0430
Civil Twilight 5:59 AM +0430 5:15 PM +0430
Nautical Twilight 5:29 AM +0430 5:45 PM +0430
Astronomical Twilight 4:59 AM +0430 6:15 PM +0430
Moon 7:51 AM +0430 (11/15) 6:14 PM +0430 (11/15)
Length of Visible Light 11h 15m
Length of Day
10h 21m
Waxing Crescent, 3% of the Moon is Illuminated
Nov 15
Waxing Crescent
Nov 20
First Quarter
Nov 28
Full
Dec 6
Last Quarter
Dec 13
New

Hourly Weather History & Observations

Time (+0430) Temp. Windchill Dew Point Humidity Pressure Visibility Wind Dir Wind Speed Gust Speed Precip Events Conditions
12:20 AM 39.2 °F 37.0 °F 23.0 °F 52% 30.21 in 2.2 mi West 3.5 mph - N/A   Haze
1:20 AM 39.2 °F 37.0 °F 17.6 °F 42% 30.21 in 2.5 mi SW 3.5 mph - N/A   Haze
2:20 AM 37.4 °F 33.8 °F 17.6 °F 45% 30.18 in 3.1 mi NW 4.6 mph - N/A   Haze
3:20 AM 39.2 °F 35.9 °F 14.0 °F 36% 30.18 in 4.3 mi WNW 4.6 mph - N/A   Unknown
4:20 AM 37.4 °F 33.8 °F 15.8 °F 41% 30.21 in 3.7 mi SSW 4.6 mph - N/A   Unknown
5:20 AM 37.4 °F 32.1 °F 8.6 °F 30% 30.21 in 4.3 mi NNW 6.9 mph - N/A   Unknown
6:20 AM 37.4 °F 33.8 °F 10.4 °F 33% 30.21 in 5.0 mi WNW 4.6 mph - N/A   Unknown
7:20 AM 39.2 °F 35.0 °F 8.6 °F 28% 30.24 in - NW 5.8 mph - N/A   Clear
8:20 AM 50.0 °F - 6.8 °F 17% 30.27 in 3.7 mi NW 4.6 mph - N/A   Unknown
9:20 AM 55.4 °F - 3.2 °F 12% 30.27 in 4.3 mi NNW 5.8 mph - N/A   Unknown
10:20 AM 59.0 °F - 5.0 °F 12% 30.27 in 4.3 mi West 4.6 mph - N/A   Unknown
11:20 AM 62.6 °F - 6.8 °F 11% 30.24 in 3.7 mi West 3.5 mph - N/A   Unknown
12:20 PM 64.4 °F - 8.6 °F 11% 30.21 in 4.3 mi WSW 3.5 mph - N/A   Unknown
1:20 PM 62.6 °F - 6.8 °F 11% 30.18 in 4.3 mi SE 6.9 mph - N/A   Unknown
2:20 PM 64.4 °F - 5.0 °F 10% 30.15 in 3.7 mi Variable 2.3 mph - N/A   Unknown
3:20 PM 64.4 °F - 5.0 °F 10% 30.15 in 4.3 mi East 3.5 mph - N/A   Unknown
4:20 PM 60.8 °F - 6.8 °F 12% 30.15 in 4.3 mi NW 4.6 mph - N/A   Unknown
5:20 PM 57.2 °F - 6.8 °F 13% 30.15 in 4.3 mi North 6.9 mph - N/A   Unknown
6:20 PM 53.6 °F - 8.6 °F 16% 30.18 in 3.7 mi NNW 3.5 mph - N/A   Unknown
7:20 PM 50.0 °F - 14.0 °F 24% 30.18 in 3.1 mi SE 4.6 mph - N/A   Haze
8:20 PM 48.2 °F - 12.2 °F 24% 30.18 in 3.1 mi NE 3.5 mph - N/A   Haze
9:20 PM 46.4 °F 45.2 °F 14.0 °F 27% 30.18 in 3.1 mi NNW 3.5 mph - N/A   Haze
10:20 PM 41.0 °F 39.0 °F 15.8 °F 36% 30.21 in 2.5 mi ESE 3.5 mph - N/A   Haze
11:20 PM 42.8 °F 41.1 °F 17.6 °F 36% 30.18 in 1.9 mi Variable 3.5 mph - N/A   Haze